Location: Ahstedt
(52.2048°N, 10.1060°E)
Time: 06:33:31
(UTC+00:00)

Cosmos 2084 - Pass Details

Date: 18 January 2026
Orbit: 536 x 564 km, 62.8° (Epoch: 18 February)

Event Time Altitude Azimuth Distance (km) Brightness Sun altitude
Exits shadow 04:30:42 40° 25° (NNE) 826 4.3 -25.1°
Drops below altitude 10° 04:33:33 10° 43° (NE) 1,842 6.5 -24.6°
Sets 04:35:47 0° 47° (NE) 2,734 7.5 -24.3°
